Time,TemperatureF,DewpointF,PressureIn,WindDirection,WindDirectionDegrees,WindSpeedMPH,WindSpeedGustMPH,Humidity,HourlyPrecipIn,Conditions,Clouds,dailyrainin,SolarRadiationWatts/m^2,SoftwareType,DateUTC
2013-02-03 00:00:00,54.1,50.3,30.16,NNW,327,0.0,0.0,87,0.00,,,0.00,0,Wunderground v.1.15,2013-02-03 05:00:00,
2013-02-03 00:04:00,54.2,50.4,30.16,WNW,301,1.0,3.0,87,0.00,,,0.00,0,Wunderground v.1.15,2013-02-03 05:04:00,
2013-02-03 00:08:00,54.4,50.3,30.16,WNW,296,2.0,4.0,86,0.00,,,0.00,0,Wunderground v.1.15,2013-02-03 05:08:00,
2013-02-03 00:14:00,54.8,50.1,30.16,WNW,301,3.0,3.0,84,0.00,,,0.00,0,Wunderground v.1.15,2013-02-03 05:14:00,
2013-02-03 00:20:00,55.1,50.0,30.16,West,272,2.0,3.0,83,0.00,,,0.00,0,Wunderground v.1.15,2013-02-03 05:20:00,
2013-02-03 00:26:00,55.1,49.7,30.16,WNW,298,3.0,3.0,82,0.00,,,0.00,0,Wunderground v.1.15,2013-02-03 05:26:00,
2013-02-03 00:32:00,55.2,49.5,30.16,WNW,294,3.0,3.0,81,0.00,,,0.00,0,Wunderground v.1.15,2013-02-03 05:32:00,
2013-02-03 00:38:00,55.3,48.9,30.16,NW,304,3.0,3.0,79,0.00,,,0.00,0,Wunderground v.1.15,2013-02-03 05:38:00,
2013-02-03 00:44:00,55.5,48.8,30.16,WNW,294,3.0,3.0,78,0.00,,,0.00,0,Wunderground v.1.15,2013-02-03 05:44:00,
2013-02-03 00:50:00,55.7,48.6,30.16,WNW,300,3.0,6.0,77,0.00,,,0.00,0,Wunderground v.1.15,2013-02-03 05:50:00,
2013-02-03 00:56:00,55.9,48.4,30.16,WNW,300,3.0,6.0,76,0.00,,,0.00,0,Wunderground v.1.15,2013-02-03 05:56:00,
2013-02-03 01:02:00,56.1,48.3,30.16,WNW,301,3.0,7.0,75,0.00,,,0.00,0,Wunderground v.1.15,2013-02-03 06:02:00,
2013-02-03 01:08:00,56.2,48.0,30.16,WNW,301,4.0,7.0,74,0.00,,,0.00,0,Wunderground v.1.15,2013-02-03 06:08:00,
2013-02-03 01:14:00,56.1,47.9,30.16,WNW,302,3.0,4.0,74,0.00,,,0.00,0,Wunderground v.1.15,2013-02-03 06:14:00,
2013-02-03 01:20:00,55.8,48.0,30.15,WNW,302,1.0,1.0,75,0.00,,,0.00,0,Wunderground v.1.15,2013-02-03 06:20:00,
2013-02-03 01:26:00,55.8,48.0,30.15,WNW,302,0.0,1.0,75,0.00,,,0.00,0,Wunderground v.1.15,2013-02-03 06:26:00,
2013-02-03 01:32:00,55.5,47.7,30.15,WNW,302,0.0,0.0,75,0.00,,,0.00,0,Wunderground v.1.15,2013-02-03 06:32:00,
2013-02-03 01:38:00,55.3,47.9,30.15,WNW,302,0.0,0.0,76,0.00,,,0.00,0,Wunderground v.1.15,2013-02-03 06:38:00,
2013-02-03 01:44:00,55.5,48.1,30.14,WNW,302,0.0,0.0,76,0.00,,,0.00,0,Wunderground v.1.15,2013-02-03 06:44:00,
2013-02-03 01:50:00,55.1,48.0,30.14,WNW,302,0.0,0.0,77,0.00,,,0.00,0,Wunderground v.1.15,2013-02-03 06:50:00,
2013-02-03 01:56:00,54.8,47.7,30.14,WNW,302,0.0,0.0,77,0.00,,,0.00,0,Wunderground v.1.15,2013-02-03 06:56:00,
2013-02-03 02:02:00,54.4,47.7,30.14,WNW,302,0.0,0.0,78,0.00,,,0.00,0,Wunderground v.1.15,2013-02-03 07:02:00,
2013-02-03 02:08:00,54.1,47.7,30.14,WNW,302,0.0,0.0,79,0.00,,,0.00,0,Wunderground v.1.15,2013-02-03 07:08:00,
2013-02-03 02:14:00,53.5,47.5,30.14,WNW,302,0.0,0.0,80,0.00,,,0.00,0,Wunderground v.1.15,2013-02-03 07:14:00,
2013-02-03 02:20:00,53.3,47.3,30.14,WNW,302,0.0,0.0,80,0.00,,,0.00,0,Wunderground v.1.15,2013-02-03 07:20:00,
2013-02-03 02:26:00,53.0,47.3,30.13,WNW,302,0.0,0.0,81,0.00,,,0.00,0,Wunderground v.1.15,2013-02-03 07:26:00,
2013-02-03 02:32:00,52.7,47.4,30.13,WNW,302,0.0,0.0,82,0.00,,,0.00,0,Wunderground v.1.15,2013-02-03 07:32:00,
2013-02-03 02:38:00,52.7,47.4,30.13,WNW,302,0.0,0.0,82,0.00,,,0.00,0,Wunderground v.1.15,2013-02-03 07:38:00,
2013-02-03 02:44:00,52.4,47.4,30.13,WNW,302,0.0,0.0,83,0.00,,,0.00,0,Wunderground v.1.15,2013-02-03 07:44:00,
2013-02-03 02:50:00,52.3,47.3,30.13,WNW,302,0.0,0.0,83,0.00,,,0.00,0,Wunderground v.1.15,2013-02-03 07:50:00,
2013-02-03 02:56:00,52.2,47.2,30.12,WNW,302,0.0,0.0,83,0.00,,,0.00,0,Wunderground v.1.15,2013-02-03 07:56:00,
2013-02-03 03:02:00,52.0,47.3,30.12,WNW,302,0.0,0.0,84,0.00,,,0.00,0,Wunderground v.1.15,2013-02-03 08:02:00,
2013-02-03 03:08:00,51.8,47.1,30.12,WNW,302,0.0,0.0,84,0.00,,,0.00,0,Wunderground v.1.15,2013-02-03 08:08:00,
2013-02-03 03:14:00,51.7,47.0,30.12,WNW,302,0.0,0.0,84,0.00,,,0.00,0,Wunderground v.1.15,2013-02-03 08:14:00,
2013-02-03 03:20:00,51.7,47.0,30.12,WNW,302,0.0,0.0,84,0.00,,,0.00,0,Wunderground v.1.15,2013-02-03 08:20:00,
2013-02-03 03:26:00,51.6,46.9,30.12,WNW,302,0.0,0.0,84,0.00,,,0.00,0,Wunderground v.1.15,2013-02-03 08:26:00,
2013-02-03 03:32:00,51.5,46.8,30.12,WNW,302,0.0,0.0,84,0.00,,,0.00,0,Wunderground v.1.15,2013-02-03 08:32:00,
2013-02-03 03:38:00,51.4,47.0,30.12,WNW,302,0.0,0.0,85,0.00,,,0.00,0,Wunderground v.1.15,2013-02-03 08:38:00,
2013-02-03 03:44:00,51.2,46.8,30.12,WNW,302,0.0,0.0,85,0.00,,,0.00,0,Wunderground v.1.15,2013-02-03 08:44:00,
2013-02-03 03:50:00,51.1,46.7,30.12,WNW,302,0.0,0.0,85,0.00,,,0.00,0,Wunderground v.1.15,2013-02-03 08:50:00,
2013-02-03 03:56:00,51.0,47.0,30.12,WNW,302,0.0,0.0,86,0.00,,,0.00,0,Wunderground v.1.15,2013-02-03 08:56:00,
2013-02-03 04:02:00,50.7,46.7,30.12,WNW,302,0.0,0.0,86,0.00,,,0.00,0,Wunderground v.1.15,2013-02-03 09:02:00,
2013-02-03 04:08:00,50.6,46.9,30.12,WNW,302,0.0,0.0,87,0.00,,,0.00,0,Wunderground v.1.15,2013-02-03 09:08:00,
2013-02-03 04:14:00,50.5,46.8,30.12,WNW,302,0.0,0.0,87,0.00,,,0.00,0,Wunderground v.1.15,2013-02-03 09:14:00,
2013-02-03 04:20:00,50.4,46.7,30.12,WNW,302,0.0,0.0,87,0.00,,,0.00,0,Wunderground v.1.15,2013-02-03 09:20:00,
2013-02-03 04:26:00,50.4,47.0,30.12,WNW,302,0.0,0.0,88,0.00,,,0.00,0,Wunderground v.1.15,2013-02-03 09:26:00,
2013-02-03 04:32:00,50.4,47.0,30.12,WNW,302,0.0,0.0,88,0.00,,,0.00,0,Wunderground v.1.15,2013-02-03 09:32:00,
2013-02-03 04:38:00,50.2,46.8,30.12,WNW,302,0.0,0.0,88,0.00,,,0.00,0,Wunderground v.1.15,2013-02-03 09:38:00,
2013-02-03 04:44:00,50.0,47.2,30.12,WNW,302,0.0,0.0,90,0.00,,,0.00,0,Wunderground v.1.15,2013-02-03 09:44:00,
2013-02-03 04:50:00,50.0,47.2,30.12,WNW,302,0.0,0.0,90,0.00,,,0.00,0,Wunderground v.1.15,2013-02-03 09:50:00,
2013-02-03 04:56:00,50.0,47.5,30.12,WNW,302,0.0,0.0,91,0.00,,,0.00,0,Wunderground v.1.15,2013-02-03 09:56:00,
2013-02-03 05:02:00,50.0,47.5,30.12,WNW,302,0.0,0.0,91,0.00,,,0.00,0,Wunderground v.1.15,2013-02-03 10:02:00,
2013-02-03 05:08:00,50.0,47.5,30.13,WNW,302,0.0,0.0,91,0.00,,,0.00,0,Wunderground v.1.15,2013-02-03 10:08:00,
2013-02-03 05:14:00,49.9,47.4,30.13,WNW,302,0.0,0.0,91,0.00,,,0.00,0,Wunderground v.1.15,2013-02-03 10:14:00,
2013-02-03 05:20:00,49.8,47.3,30.13,WNW,302,0.0,0.0,91,0.00,,,0.00,0,Wunderground v.1.15,2013-02-03 10:20:00,
2013-02-03 05:26:00,49.7,47.2,30.13,WNW,302,0.0,0.0,91,0.00,,,0.00,0,Wunderground v.1.15,2013-02-03 10:26:00,
2013-02-03 05:32:00,49.7,47.2,30.13,WNW,302,0.0,0.0,91,0.00,,,0.00,0,Wunderground v.1.15,2013-02-03 10:32:00,
2013-02-03 05:38:00,49.5,47.3,30.14,WNW,302,1.0,2.0,92,0.00,,,0.00,0,Wunderground v.1.15,2013-02-03 10:38:00,
2013-02-03 05:44:00,49.4,47.2,30.14,WNW,302,1.0,1.0,92,0.00,,,0.00,0,Wunderground v.1.15,2013-02-03 10:44:00,
2013-02-03 05:50:00,49.4,47.2,30.14,WNW,302,0.0,0.0,92,0.00,,,0.00,0,Wunderground v.1.15,2013-02-03 10:50:00,
2013-02-03 05:56:00,49.4,47.2,30.14,WNW,302,0.0,0.0,92,0.00,,,0.00,0,Wunderground v.1.15,2013-02-03 10:56:00,
2013-02-03 06:02:00,49.3,47.1,30.14,WNW,302,0.0,0.0,92,0.00,,,0.00,0,Wunderground v.1.15,2013-02-03 11:02:00,
2013-02-03 06:08:00,49.2,46.7,30.14,WNW,302,0.0,1.0,91,0.00,,,0.00,0,Wunderground v.1.15,2013-02-03 11:08:00,
2013-02-03 06:14:00,49.1,46.6,30.15,WNW,302,1.0,2.0,91,0.00,,,0.00,0,Wunderground v.1.15,2013-02-03 11:14:00,
2013-02-03 06:20:00,49.0,46.5,30.15,WNW,302,1.0,1.0,91,0.00,,,0.00,0,Wunderground v.1.15,2013-02-03 11:20:00,
2013-02-03 06:26:00,49.0,46.5,30.15,WNW,302,0.0,1.0,91,0.00,,,0.00,0,Wunderground v.1.15,2013-02-03 11:26:00,
2013-02-03 06:32:00,48.9,46.4,30.15,WNW,302,0.0,0.0,91,0.00,,,0.00,0,Wunderground v.1.15,2013-02-03 11:32:00,
2013-02-03 06:38:00,48.6,46.1,30.15,WNW,302,0.0,0.0,91,0.00,,,0.00,0,Wunderground v.1.15,2013-02-03 11:38:00,
2013-02-03 06:44:00,48.3,45.8,30.15,WNW,302,0.0,0.0,91,0.00,,,0.00,0,Wunderground v.1.15,2013-02-03 11:44:00,
2013-02-03 06:50:00,48.3,45.8,30.16,WNW,302,0.0,0.0,91,0.00,,,0.00,0,Wunderground v.1.15,2013-02-03 11:50:00,
2013-02-03 06:56:00,48.5,46.3,30.16,WNW,287,1.0,6.0,92,0.00,,,0.00,0,Wunderground v.1.15,2013-02-03 11:56:00,
2013-02-03 07:02:00,49.2,46.4,30.17,WNW,294,3.0,7.0,90,0.00,,,0.00,5,Wunderground v.1.15,2013-02-03 12:02:00,
2013-02-03 07:08:00,49.6,45.9,30.17,NW,307,5.0,7.0,87,0.00,,,0.00,5,Wunderground v.1.15,2013-02-03 12:08:00,
2013-02-03 07:14:00,50.1,45.5,30.17,West,277,6.0,8.0,84,0.00,,,0.00,11,Wunderground v.1.15,2013-02-03 12:14:00,
2013-02-03 07:20:00,50.6,45.6,30.18,WNW,298,6.0,10.0,83,0.00,,,0.00,16,Wunderground v.1.15,2013-02-03 12:20:00,
2013-02-03 07:26:00,50.8,45.2,30.18,WNW,302,6.0,11.0,81,0.00,,,0.00,21,Wunderground v.1.15,2013-02-03 12:26:00,
2013-02-03 07:32:00,50.7,45.1,30.18,WNW,300,5.0,6.0,81,0.00,,,0.00,23,Wunderground v.1.15,2013-02-03 12:32:00,
2013-02-03 07:38:00,50.5,44.9,30.18,NW,304,3.0,6.0,81,0.00,,,0.00,32,Wunderground v.1.15,2013-02-03 12:38:00,
2013-02-03 07:44:00,50.5,44.9,30.18,WNW,298,4.0,4.0,81,0.00,,,0.00,42,Wunderground v.1.15,2013-02-03 12:44:00,
2013-02-03 07:50:00,50.6,44.7,30.18,WNW,298,4.0,4.0,80,0.00,,,0.00,56,Wunderground v.1.15,2013-02-03 12:50:00,
2013-02-03 07:56:00,50.7,44.4,30.19,NW,314,6.0,12.0,79,0.00,,,0.00,62,Wunderground v.1.15,2013-02-03 12:56:00,
2013-02-03 08:02:00,51.0,44.0,30.19,NW,326,5.0,10.0,77,0.00,,,0.00,81,Wunderground v.1.15,2013-02-03 13:02:00,
2013-02-03 08:08:00,51.2,43.5,30.20,NW,304,4.0,10.0,75,0.00,,,0.00,76,Wunderground v.1.15,2013-02-03 13:08:00,
2013-02-03 08:14:00,51.2,43.2,30.20,NW,311,5.0,6.0,74,0.00,,,0.00,105,Wunderground v.1.15,2013-02-03 13:14:00,
2013-02-03 08:20:00,51.2,42.8,30.20,NW,317,5.0,5.0,73,0.00,,,0.00,81,Wunderground v.1.15,2013-02-03 13:20:00,
2013-02-03 08:26:00,51.4,42.7,30.20,NW,313,3.0,7.0,72,0.00,,,0.00,95,Wunderground v.1.15,2013-02-03 13:26:00,
2013-02-03 08:32:00,51.7,42.2,30.20,NW,308,1.0,2.0,70,0.00,,,0.00,186,Wunderground v.1.15,2013-02-03 13:32:00,
2013-02-03 08:38:00,52.2,42.7,30.20,NW,308,0.0,2.0,70,0.00,,,0.00,206,Wunderground v.1.15,2013-02-03 13:38:00,
2013-02-03 08:44:00,52.7,42.8,30.20,WNW,302,0.0,0.0,69,0.00,,,0.00,197,Wunderground v.1.15,2013-02-03 13:44:00,
2013-02-03 08:50:00,53.2,42.1,30.20,WNW,300,1.0,3.0,66,0.00,,,0.00,267,Wunderground v.1.15,2013-02-03 13:50:00,
2013-02-03 08:56:00,53.9,42.0,30.21,WNW,298,2.0,6.0,64,0.00,,,0.00,281,Wunderground v.1.15,2013-02-03 13:56:00,
2013-02-03 09:02:00,54.5,41.7,30.20,WNW,287,2.0,6.0,62,0.00,,,0.00,292,Wunderground v.1.15,2013-02-03 14:02:00,
2013-02-03 09:08:00,55.2,41.5,30.20,WNW,283,3.0,6.0,60,0.00,,,0.00,320,Wunderground v.1.15,2013-02-03 14:08:00,
2013-02-03 09:14:00,56.0,40.1,30.21,West,277,3.0,5.0,55,0.00,,,0.00,334,Wunderground v.1.15,2013-02-03 14:14:00,
2013-02-03 09:20:00,56.7,39.7,30.21,WNW,286,4.0,4.0,53,0.00,,,0.00,276,Wunderground v.1.15,2013-02-03 14:20:00,
2013-02-03 09:26:00,57.4,38.9,30.21,WNW,298,3.0,4.0,50,0.00,,,0.00,329,Wunderground v.1.15,2013-02-03 14:26:00,
2013-02-03 09:32:00,58.0,37.9,30.21,NW,304,2.0,6.0,47,0.00,,,0.00,316,Wunderground v.1.15,2013-02-03 14:32:00,
2013-02-03 09:38:00,58.9,37.0,30.21,NW,315,3.0,7.0,44,0.00,,,0.00,446,Wunderground v.1.15,2013-02-03 14:38:00,
2013-02-03 09:44:00,59.0,36.5,30.21,WNW,298,4.0,8.0,43,0.00,,,0.00,468,Wunderground v.1.15,2013-02-03 14:44:00,
2013-02-03 09:50:00,59.8,35.4,30.21,WNW,298,5.0,5.0,40,0.00,,,0.00,492,Wunderground v.1.15,2013-02-03 14:50:00,
2013-02-03 09:56:00,60.2,35.1,30.21,NNW,337,5.0,11.0,39,0.00,,,0.00,420,Wunderground v.1.15,2013-02-03 14:56:00,
2013-02-03 10:02:00,60.4,35.3,30.20,NW,306,5.0,6.0,39,0.00,,,0.00,480,Wunderground v.1.15,2013-02-03 15:02:00,
2013-02-03 10:08:00,61.1,35.3,30.20,North,349,6.0,6.0,38,0.00,,,0.00,469,Wunderground v.1.15,2013-02-03 15:08:00,
2013-02-03 10:14:00,61.4,34.9,30.20,North,355,6.0,12.0,37,0.00,,,0.00,446,Wunderground v.1.15,2013-02-03 15:14:00,
2013-02-03 10:20:00,61.8,35.2,30.20,NNW,332,6.0,6.0,37,0.00,,,0.00,357,Wunderground v.1.15,2013-02-03 15:20:00,
2013-02-03 10:26:00,62.5,35.9,30.20,NW,319,5.0,6.0,37,0.00,,,0.00,445,Wunderground v.1.15,2013-02-03 15:26:00,
2013-02-03 10:32:00,62.6,36.6,30.20,WNW,293,5.0,9.0,38,0.00,,,0.00,504,Wunderground v.1.15,2013-02-03 15:32:00,
2013-02-03 10:38:00,63.0,37.6,30.20,NNW,331,5.0,12.0,39,0.00,,,0.00,501,Wunderground v.1.15,2013-02-03 15:38:00,
2013-02-03 10:44:00,63.5,39.4,30.20,NW,306,5.0,7.0,41,0.00,,,0.00,578,Wunderground v.1.15,2013-02-03 15:44:00,
2013-02-03 10:50:00,63.7,40.8,30.20,NNW,335,6.0,10.0,43,0.00,,,0.00,643,Wunderground v.1.15,2013-02-03 15:50:00,
2013-02-03 10:56:00,64.1,42.3,30.19,NNW,338,7.0,10.0,45,0.00,,,0.00,654,Wunderground v.1.15,2013-02-03 15:56:00,
2013-02-03 11:02:00,64.5,42.7,30.19,WNW,298,8.0,12.0,45,0.00,,,0.00,624,Wunderground v.1.15,2013-02-03 16:02:00,
2013-02-03 11:08:00,64.5,42.1,30.19,North,350,8.0,12.0,44,0.00,,,0.00,649,Wunderground v.1.15,2013-02-03 16:08:00,
2013-02-03 11:14:00,64.9,43.0,30.19,NNW,340,7.0,9.0,45,0.00,,,0.00,589,Wunderground v.1.15,2013-02-03 16:14:00,
2013-02-03 11:20:00,64.8,42.4,30.19,NW,323,6.0,6.0,44,0.00,,,0.00,668,Wunderground v.1.15,2013-02-03 16:20:00,
2013-02-03 11:26:00,65.3,41.6,30.18,WNW,295,6.0,7.0,42,0.00,,,0.00,645,Wunderground v.1.15,2013-02-03 16:26:00,
2013-02-03 11:32:00,65.4,43.5,30.18,North,350,6.0,11.0,45,0.00,,,0.00,705,Wunderground v.1.15,2013-02-03 16:32:00,
2013-02-03 11:38:00,65.6,45.9,30.18,North,350,6.0,11.0,49,0.00,,,0.00,722,Wunderground v.1.15,2013-02-03 16:38:00,
2013-02-03 11:44:00,65.2,45.5,30.18,NNW,327,7.0,10.0,49,0.00,,,0.00,717,Wunderground v.1.15,2013-02-03 16:44:00,
2013-02-03 11:50:00,65.3,46.2,30.17,North,5,6.0,10.0,50,0.00,,,0.00,715,Wunderground v.1.15,2013-02-03 16:50:00,
2013-02-03 11:56:00,65.0,46.4,30.17,North,360,6.0,11.0,51,0.00,,,0.00,691,Wunderground v.1.15,2013-02-03 16:56:00,
2013-02-03 12:02:00,65.0,46.9,30.17,North,11,7.0,11.0,52,0.00,,,0.00,717,Wunderground v.1.15,2013-02-03 17:02:00,
2013-02-03 12:08:00,65.5,47.9,30.16,NNE,26,6.0,11.0,53,0.00,,,0.00,714,Wunderground v.1.15,2013-02-03 17:08:00,
2013-02-03 12:14:00,65.2,47.6,30.16,North,5,5.0,7.0,53,0.00,,,0.00,756,Wunderground v.1.15,2013-02-03 17:14:00,
2013-02-03 12:20:00,64.9,47.9,30.16,NNE,32,6.0,6.0,54,0.00,,,0.00,719,Wunderground v.1.15,2013-02-03 17:20:00,
2013-02-03 12:26:00,65.1,48.0,30.16,NNE,22,6.0,9.0,54,0.00,,,0.00,717,Wunderground v.1.15,2013-02-03 17:26:00,
2013-02-03 12:32:00,65.7,48.6,30.16,North,355,5.0,5.0,54,0.00,,,0.00,729,Wunderground v.1.15,2013-02-03 17:32:00,
2013-02-03 12:38:00,66.5,49.3,30.15,NNW,344,3.0,6.0,54,0.00,,,0.00,601,Wunderground v.1.15,2013-02-03 17:38:00,
2013-02-03 12:44:00,66.5,49.8,30.15,NNE,27,5.0,11.0,55,0.00,,,0.00,744,Wunderground v.1.15,2013-02-03 17:44:00,
2013-02-03 12:50:00,66.3,48.7,30.14,NE,55,6.0,6.0,53,0.00,,,0.00,740,Wunderground v.1.15,2013-02-03 17:50:00,
2013-02-03 12:56:00,66.5,49.3,30.14,North,360,6.0,8.0,54,0.00,,,0.00,754,Wunderground v.1.15,2013-02-03 17:56:00,
2013-02-03 13:02:00,66.4,49.2,30.14,North,10,7.0,9.0,54,0.00,,,0.00,768,Wunderground v.1.15,2013-02-03 18:02:00,
2013-02-03 13:08:00,66.8,49.1,30.13,NNE,30,6.0,9.0,53,0.00,,,0.00,738,Wunderground v.1.15,2013-02-03 18:08:00,
2013-02-03 13:14:00,68.5,46.9,30.13,NW,323,6.0,11.0,46,0.00,,,0.00,728,Wunderground v.1.15,2013-02-03 18:14:00,
2013-02-03 13:20:00,68.8,47.2,30.13,NW,306,7.0,10.0,46,0.00,,,0.00,724,Wunderground v.1.15,2013-02-03 18:20:00,
2013-02-03 13:26:00,68.5,46.3,30.12,NNW,333,9.0,10.0,45,0.00,,,0.00,737,Wunderground v.1.15,2013-02-03 18:26:00,
2013-02-03 13:32:00,68.5,46.9,30.12,NNW,340,9.0,10.0,46,0.00,,,0.00,724,Wunderground v.1.15,2013-02-03 18:32:00,
2013-02-03 13:38:00,68.6,46.4,30.12,North,360,9.0,10.0,45,0.00,,,0.00,710,Wunderground v.1.15,2013-02-03 18:38:00,
2013-02-03 13:44:00,69.0,46.8,30.12,NNW,339,6.0,8.0,45,0.00,,,0.00,721,Wunderground v.1.15,2013-02-03 18:44:00,
2013-02-03 13:50:00,69.1,46.9,30.11,WNW,288,6.0,6.0,45,0.00,,,0.00,710,Wunderground v.1.15,2013-02-03 18:50:00,
2013-02-03 13:56:00,69.5,46.6,30.11,NNW,327,5.0,6.0,44,0.00,,,0.00,696,Wunderground v.1.15,2013-02-03 18:56:00,
2013-02-03 14:02:00,69.9,47.6,30.10,WNW,299,5.0,5.0,45,0.00,,,0.00,687,Wunderground v.1.15,2013-02-03 19:02:00,
2013-02-03 14:08:00,69.8,46.9,30.10,WNW,300,5.0,6.0,44,0.00,,,0.00,684,Wunderground v.1.15,2013-02-03 19:08:00,
2013-02-03 14:14:00,69.6,46.7,30.10,NW,306,6.0,11.0,44,0.00,,,0.00,652,Wunderground v.1.15,2013-02-03 19:14:00,
2013-02-03 14:20:00,69.9,47.0,30.10,North,360,6.0,6.0,44,0.00,,,0.00,657,Wunderground v.1.15,2013-02-03 19:20:00,
2013-02-03 14:26:00,69.3,48.2,30.10,NNW,343,5.0,9.0,47,0.00,,,0.00,663,Wunderground v.1.15,2013-02-03 19:26:00,
2013-02-03 14:32:00,69.1,49.1,30.09,NNW,348,2.0,5.0,49,0.00,,,0.00,649,Wunderground v.1.15,2013-02-03 19:32:00,
2013-02-03 14:38:00,70.2,46.6,30.09,NW,314,2.0,10.0,43,0.00,,,0.00,633,Wunderground v.1.15,2013-02-03 19:38:00,
2013-02-03 14:44:00,70.4,46.8,30.09,WNW,298,5.0,7.0,43,0.00,,,0.00,617,Wunderground v.1.15,2013-02-03 19:44:00,
2013-02-03 14:50:00,70.7,46.5,30.09,West,264,6.0,10.0,42,0.00,,,0.00,624,Wunderground v.1.15,2013-02-03 19:50:00,
2013-02-03 14:56:00,70.8,46.6,30.09,WNW,301,7.0,12.0,42,0.00,,,0.00,628,Wunderground v.1.15,2013-02-03 19:56:00,
2013-02-03 15:02:00,70.8,46.6,30.09,WNW,295,7.0,9.0,42,0.00,,,0.00,601,Wunderground v.1.15,2013-02-03 20:02:00,
2013-02-03 15:08:00,71.3,46.4,30.09,NW,304,7.0,10.0,41,0.00,,,0.00,564,Wunderground v.1.15,2013-02-03 20:08:00,
2013-02-03 15:14:00,70.7,45.2,30.08,West,271,9.0,18.0,40,0.00,,,0.00,538,Wunderground v.1.15,2013-02-03 20:14:00,
2013-02-03 15:20:00,70.8,45.9,30.08,WNW,296,9.0,11.0,41,0.00,,,0.00,497,Wunderground v.1.15,2013-02-03 20:20:00,
2013-02-03 15:26:00,70.6,46.4,30.08,West,277,9.0,11.0,42,0.00,,,0.00,508,Wunderground v.1.15,2013-02-03 20:26:00,
2013-02-03 15:32:00,70.4,44.9,30.08,WNW,295,9.0,15.0,40,0.00,,,0.00,520,Wunderground v.1.15,2013-02-03 20:32:00,
2013-02-03 15:38:00,70.6,45.7,30.08,WNW,300,8.0,15.0,41,0.00,,,0.00,496,Wunderground v.1.15,2013-02-03 20:38:00,
2013-02-03 15:44:00,70.3,45.5,30.08,WNW,300,9.0,11.0,41,0.00,,,0.00,445,Wunderground v.1.15,2013-02-03 20:44:00,
2013-02-03 15:50:00,70.2,42.7,30.08,West,263,9.0,9.0,37,0.00,,,0.00,461,Wunderground v.1.15,2013-02-03 20:50:00,
2013-02-03 15:56:00,70.4,42.2,30.08,WNW,303,9.0,11.0,36,0.00,,,0.00,425,Wunderground v.1.15,2013-02-03 20:56:00,
2013-02-03 16:02:00,70.0,43.9,30.08,NW,326,10.0,11.0,39,0.00,,,0.00,420,Wunderground v.1.15,2013-02-03 21:02:00,
2013-02-03 16:08:00,69.8,44.4,30.08,WNW,284,11.0,14.0,40,0.00,,,0.00,360,Wunderground v.1.15,2013-02-03 21:08:00,
2013-02-03 16:14:00,70.0,44.6,30.08,West,277,8.0,11.0,40,0.00,,,0.00,371,Wunderground v.1.15,2013-02-03 21:14:00,
2013-02-03 16:20:00,69.9,45.1,30.08,NW,306,6.0,9.0,41,0.00,,,0.00,318,Wunderground v.1.15,2013-02-03 21:20:00,
2013-02-03 16:26:00,69.7,45.6,30.08,West,265,6.0,13.0,42,0.00,,,0.00,322,Wunderground v.1.15,2013-02-03 21:26:00,
2013-02-03 16:32:00,69.5,46.0,30.08,NW,313,6.0,7.0,43,0.00,,,0.00,246,Wunderground v.1.15,2013-02-03 21:32:00,
2013-02-03 16:38:00,69.4,45.9,30.08,WNW,286,5.0,10.0,43,0.00,,,0.00,202,Wunderground v.1.15,2013-02-03 21:38:00,
2013-02-03 16:44:00,69.0,45.6,30.08,WNW,300,5.0,9.0,43,0.00,,,0.00,148,Wunderground v.1.15,2013-02-03 21:44:00,
2013-02-03 16:50:00,69.1,46.3,30.08,WNW,294,5.0,5.0,44,0.00,,,0.00,121,Wunderground v.1.15,2013-02-03 21:50:00,
2013-02-03 16:56:00,69.2,46.4,30.08,WNW,284,5.0,6.0,44,0.00,,,0.00,185,Wunderground v.1.15,2013-02-03 21:56:00,
2013-02-03 17:02:00,69.0,46.2,30.08,WNW,288,4.0,5.0,44,0.00,,,0.00,186,Wunderground v.1.15,2013-02-03 22:02:00,
2013-02-03 17:08:00,69.0,46.8,30.08,WNW,298,3.0,5.0,45,0.00,,,0.00,116,Wunderground v.1.15,2013-02-03 22:08:00,
2013-02-03 17:14:00,68.8,46.6,30.08,West,271,4.0,11.0,45,0.00,,,0.00,49,Wunderground v.1.15,2013-02-03 22:14:00,
2013-02-03 17:20:00,68.7,46.5,30.08,WNW,288,4.0,4.0,45,0.00,,,0.00,42,Wunderground v.1.15,2013-02-03 22:20:00,
2013-02-03 17:26:00,68.6,46.4,30.08,WNW,302,3.0,5.0,45,0.00,,,0.00,33,Wunderground v.1.15,2013-02-03 22:26:00,
2013-02-03 17:32:00,68.4,46.2,30.08,WNW,294,2.0,6.0,45,0.00,,,0.00,30,Wunderground v.1.15,2013-02-03 22:32:00,
2013-02-03 17:38:00,68.2,46.0,30.08,WNW,296,2.0,6.0,45,0.00,,,0.00,25,Wunderground v.1.15,2013-02-03 22:38:00,
2013-02-03 17:44:00,67.9,46.3,30.08,WNW,296,1.0,4.0,46,0.00,,,0.00,19,Wunderground v.1.15,2013-02-03 22:44:00,
2013-02-03 17:50:00,67.7,46.2,30.08,WNW,293,1.0,3.0,46,0.00,,,0.00,16,Wunderground v.1.15,2013-02-03 22:50:00,
2013-02-03 17:56:00,67.2,46.3,30.08,WNW,290,1.0,3.0,47,0.00,,,0.00,11,Wunderground v.1.15,2013-02-03 22:56:00,
2013-02-03 18:02:00,66.9,46.0,30.08,WNW,286,0.0,1.0,47,0.00,,,0.00,7,Wunderground v.1.15,2013-02-03 23:02:00,
2013-02-03 18:08:00,66.3,46.0,30.08,WNW,286,0.0,1.0,48,0.00,,,0.00,0,Wunderground v.1.15,2013-02-03 23:08:00,
2013-02-03 18:14:00,65.8,46.1,30.08,WNW,286,0.0,0.0,49,0.00,,,0.00,0,Wunderground v.1.15,2013-02-03 23:14:00,
2013-02-03 18:20:00,65.4,46.3,30.08,WNW,286,0.0,0.0,50,0.00,,,0.00,0,Wunderground v.1.15,2013-02-03 23:20:00,
2013-02-03 18:26:00,64.6,46.6,30.08,WNW,286,0.0,0.0,52,0.00,,,0.00,0,Wunderground v.1.15,2013-02-03 23:26:00,
2013-02-03 18:32:00,64.2,46.7,30.08,WNW,286,0.0,0.0,53,0.00,,,0.00,0,Wunderground v.1.15,2013-02-03 23:32:00,
2013-02-03 18:38:00,63.8,46.3,30.08,WNW,286,0.0,0.0,53,0.00,,,0.00,0,Wunderground v.1.15,2013-02-03 23:38:00,
2013-02-03 18:44:00,63.3,46.4,30.08,WNW,286,0.0,0.0,54,0.00,,,0.00,0,Wunderground v.1.15,2013-02-03 23:44:00,
2013-02-03 18:50:00,62.7,46.8,30.08,WNW,286,0.0,0.0,56,0.00,,,0.00,0,Wunderground v.1.15,2013-02-03 23:50:00,
2013-02-03 18:56:00,62.0,47.0,30.09,WNW,286,0.0,0.0,58,0.00,,,0.00,0,Wunderground v.1.15,2013-02-03 23:56:00,
2013-02-03 19:02:00,61.3,46.8,30.09,WNW,286,0.0,0.0,59,0.00,,,0.00,0,Wunderground v.1.15,2013-02-04 00:02:00,
2013-02-03 19:08:00,61.3,46.8,30.09,WNW,286,0.0,0.0,59,0.00,,,0.00,0,Wunderground v.1.15,2013-02-04 00:08:00,
2013-02-03 19:14:00,60.8,46.8,30.09,WNW,286,0.0,0.0,60,0.00,,,0.00,0,Wunderground v.1.15,2013-02-04 00:14:00,
2013-02-03 19:20:00,60.5,47.0,30.09,WNW,286,0.0,0.0,61,0.00,,,0.00,0,Wunderground v.1.15,2013-02-04 00:20:00,
2013-02-03 19:26:00,60.2,47.1,30.09,WNW,286,0.0,0.0,62,0.00,,,0.00,0,Wunderground v.1.15,2013-02-04 00:26:00,
2013-02-03 19:32:00,59.8,47.2,30.09,WNW,286,0.0,0.0,63,0.00,,,0.00,0,Wunderground v.1.15,2013-02-04 00:32:00,
2013-02-03 19:38:00,59.6,47.4,30.10,WNW,286,0.0,0.0,64,0.00,,,0.00,0,Wunderground v.1.15,2013-02-04 00:38:00,
2013-02-03 19:44:00,59.4,47.6,30.10,WNW,286,0.0,0.0,65,0.00,,,0.00,0,Wunderground v.1.15,2013-02-04 00:44:00,
2013-02-03 19:50:00,59.2,47.4,30.10,WNW,286,0.0,0.0,65,0.00,,,0.00,0,Wunderground v.1.15,2013-02-04 00:50:00,
2013-02-03 19:56:00,58.6,47.3,30.10,WNW,286,0.0,0.0,66,0.00,,,0.00,0,Wunderground v.1.15,2013-02-04 00:56:00,
2013-02-03 20:02:00,58.5,47.2,30.11,WNW,286,0.0,0.0,66,0.00,,,0.00,0,Wunderground v.1.15,2013-02-04 01:02:00,
2013-02-03 20:08:00,57.7,47.2,30.11,WNW,286,0.0,0.0,68,0.00,,,0.00,0,Wunderground v.1.15,2013-02-04 01:08:00,
2013-02-03 20:14:00,57.5,47.4,30.11,WNW,286,0.0,0.0,69,0.00,,,0.00,0,Wunderground v.1.15,2013-02-04 01:14:00,
2013-02-03 20:20:00,57.5,47.8,30.11,WNW,286,0.0,0.0,70,0.00,,,0.00,0,Wunderground v.1.15,2013-02-04 01:20:00,
2013-02-03 20:26:00,57.3,47.6,30.11,WNW,286,0.0,0.0,70,0.00,,,0.00,0,Wunderground v.1.15,2013-02-04 01:26:00,
2013-02-03 20:32:00,57.6,47.9,30.11,WNW,286,0.0,0.0,70,0.00,,,0.00,0,Wunderground v.1.15,2013-02-04 01:32:00,
2013-02-03 20:38:00,57.6,47.9,30.11,WNW,286,0.0,0.0,70,0.00,,,0.00,0,Wunderground v.1.15,2013-02-04 01:38:00,
2013-02-03 20:44:00,57.4,47.7,30.11,WNW,286,0.0,0.0,70,0.00,,,0.00,0,Wunderground v.1.15,2013-02-04 01:44:00,
2013-02-03 20:50:00,57.6,47.9,30.11,WNW,286,0.0,0.0,70,0.00,,,0.00,0,Wunderground v.1.15,2013-02-04 01:50:00,
2013-02-03 20:56:00,57.5,47.8,30.11,WNW,286,0.0,0.0,70,0.00,,,0.00,0,Wunderground v.1.15,2013-02-04 01:56:00,
2013-02-03 21:02:00,57.6,47.9,30.12,WNW,286,0.0,0.0,70,0.00,,,0.00,0,Wunderground v.1.15,2013-02-04 02:02:00,
2013-02-03 21:08:00,57.7,47.6,30.12,WNW,286,0.0,0.0,69,0.00,,,0.00,0,Wunderground v.1.15,2013-02-04 02:08:00,
2013-02-03 21:14:00,57.8,47.7,30.12,WNW,286,0.0,0.0,69,0.00,,,0.00,0,Wunderground v.1.15,2013-02-04 02:14:00,
2013-02-03 21:20:00,57.7,47.2,30.12,WNW,287,0.0,0.0,68,0.00,,,0.00,0,Wunderground v.1.15,2013-02-04 02:20:00,
2013-02-03 21:26:00,57.6,47.1,30.12,WNW,287,0.0,2.0,68,0.00,,,0.00,0,Wunderground v.1.15,2013-02-04 02:26:00,
2013-02-03 21:32:00,57.3,46.8,30.12,WNW,286,0.0,2.0,68,0.00,,,0.00,0,Wunderground v.1.15,2013-02-04 02:32:00,
2013-02-03 21:38:00,57.1,46.2,30.12,WNW,288,0.0,2.0,67,0.00,,,0.00,0,Wunderground v.1.15,2013-02-04 02:38:00,
2013-02-03 21:44:00,56.9,46.1,30.12,West,270,0.0,2.0,67,0.00,,,0.00,0,Wunderground v.1.15,2013-02-04 02:44:00,
2013-02-03 21:50:00,56.8,46.0,30.12,West,270,0.0,0.0,67,0.00,,,0.00,0,Wunderground v.1.15,2013-02-04 02:50:00,
2013-02-03 21:56:00,56.8,46.0,30.12,West,268,0.0,4.0,67,0.00,,,0.00,0,Wunderground v.1.15,2013-02-04 02:56:00,
2013-02-03 22:02:00,56.6,45.8,30.12,West,275,1.0,5.0,67,0.00,,,0.00,0,Wunderground v.1.15,2013-02-04 03:02:00,
2013-02-03 22:08:00,56.4,45.6,30.12,West,274,1.0,5.0,67,0.00,,,0.00,0,Wunderground v.1.15,2013-02-04 03:08:00,
2013-02-03 22:14:00,56.2,45.4,30.12,WSW,258,1.0,4.0,67,0.00,,,0.00,0,Wunderground v.1.15,2013-02-04 03:14:00,
2013-02-03 22:20:00,55.5,45.1,30.12,WSW,258,2.0,2.0,68,0.00,,,0.00,0,Wunderground v.1.15,2013-02-04 03:20:00,
2013-02-03 22:26:00,54.7,45.1,30.12,WSW,258,1.0,2.0,70,0.00,,,0.00,0,Wunderground v.1.15,2013-02-04 03:26:00,
2013-02-03 22:32:00,54.5,45.3,30.12,WSW,258,0.0,0.0,71,0.00,,,0.00,0,Wunderground v.1.15,2013-02-04 03:32:00,
2013-02-03 22:38:00,54.2,45.0,30.12,WSW,258,0.0,0.0,71,0.00,,,0.00,0,Wunderground v.1.15,2013-02-04 03:38:00,
2013-02-03 22:44:00,53.5,44.7,30.12,WSW,258,0.0,0.0,72,0.00,,,0.00,0,Wunderground v.1.15,2013-02-04 03:44:00,
2013-02-03 22:50:00,53.2,44.8,30.12,WSW,258,0.0,2.0,73,0.00,,,0.00,0,Wunderground v.1.15,2013-02-04 03:50:00,
2013-02-03 22:56:00,53.2,44.8,30.13,WSW,258,2.0,4.0,73,0.00,,,0.00,0,Wunderground v.1.15,2013-02-04 03:56:00,
2013-02-03 23:02:00,53.1,44.7,30.13,West,265,2.0,2.0,73,0.00,,,0.00,0,Wunderground v.1.15,2013-02-04 04:02:00,
2013-02-03 23:08:00,52.9,44.5,30.13,West,265,2.0,3.0,73,0.00,,,0.00,0,Wunderground v.1.15,2013-02-04 04:08:00,
2013-02-03 23:14:00,52.7,44.6,30.13,West,265,1.0,1.0,74,0.00,,,0.00,0,Wunderground v.1.15,2013-02-04 04:14:00,
2013-02-03 23:20:00,52.7,44.6,30.13,West,272,0.0,0.0,74,0.00,,,0.00,0,Wunderground v.1.15,2013-02-04 04:20:00,
2013-02-03 23:26:00,53.0,43.8,30.13,West,281,2.0,3.0,71,0.00,,,0.00,0,Wunderground v.1.15,2013-02-04 04:26:00,
2013-02-03 23:32:00,53.0,43.5,30.13,West,269,2.0,5.0,70,0.00,,,0.00,0,Wunderground v.1.15,2013-02-04 04:32:00,
2013-02-03 23:38:00,52.8,42.9,30.13,West,271,2.0,5.0,69,0.00,,,0.00,0,Wunderground v.1.15,2013-02-04 04:38:00,
2013-02-03 23:44:00,53.0,42.3,30.13,West,279,2.0,2.0,67,0.00,,,0.00,0,Wunderground v.1.15,2013-02-04 04:44:00,
2013-02-03 23:50:00,53.0,42.3,30.13,West,281,2.0,3.0,67,0.00,,,0.00,0,Wunderground v.1.15,2013-02-04 04:50:00,
2013-02-03 23:56:00,52.9,41.8,30.13,West,267,3.0,3.0,66,0.00,,,0.00,0,Wunderground v.1.15,2013-02-04 04:56:00,